TimeCST,TemperatureF,Dew PointF,Humidity,Sea Level PressureIn,VisibilityMPH,Wind Direction,Wind SpeedMPH,Gust SpeedMPH,PrecipitationIn,Events,Conditions,WindDirDegrees,DateUTC
12:15 AM,51.8,50.0,94,29.66,5.0,SSE,8.1,-,N/A,Rain-Thunderstorm,Light Thunderstorms and Rain,160,2012-11-11 06:15:00
12:35 AM,51.8,51.8,100,29.66,7.0,South,5.8,-,N/A,,Overcast,180,2012-11-11 06:35:00
12:55 AM,53.6,51.8,94,29.65,7.0,South,10.4,-,N/A,,Overcast,170,2012-11-11 06:55:00
1:15 AM,53.6,51.8,94,29.65,7.0,South,10.4,17.3,N/A,Rain,Light Rain,180,2012-11-11 07:15:00
1:35 AM,53.6,51.8,94,29.65,10.0,South,8.1,16.1,N/A,,Overcast,180,2012-11-11 07:35:00
1:55 AM,53.6,51.8,94,29.65,10.0,South,9.2,16.1,N/A,,Overcast,170,2012-11-11 07:55:00
2:15 AM,53.6,51.8,94,29.65,10.0,South,9.2,16.1,N/A,,Overcast,170,2012-11-11 08:15:00
2:35 AM,53.6,50.0,88,29.65,10.0,South,10.4,-,N/A,,Overcast,180,2012-11-11 08:35:00
2:55 AM,53.6,50.0,88,29.64,10.0,South,6.9,-,N/A,,Overcast,180,2012-11-11 08:55:00
3:15 AM,55.4,50.0,82,29.65,10.0,South,8.1,16.1,N/A,,Overcast,190,2012-11-11 09:15:00
3:35 AM,55.4,50.0,82,29.65,10.0,SSW,6.9,-,N/A,,Mostly Cloudy,200,2012-11-11 09:35:00
4:15 AM,55.4,48.2,77,29.65,10.0,South,9.2,-,N/A,,Mostly Cloudy,180,2012-11-11 10:15:00
4:35 AM,55.4,48.2,77,29.65,10.0,South,9.2,-,N/A,,Scattered Clouds,180,2012-11-11 10:35:00
4:55 AM,55.4,46.4,72,29.65,10.0,South,9.2,17.3,N/A,,Clear,170,2012-11-11 10:55:00
5:15 AM,53.6,46.4,77,29.65,10.0,South,10.4,17.3,N/A,,Clear,170,2012-11-11 11:15:00
5:35 AM,53.6,46.4,77,29.65,10.0,South,9.2,17.3,N/A,,Clear,170,2012-11-11 11:35:00
6:15 AM,55.4,46.4,72,29.62,10.0,South,12.7,18.4,N/A,,Clear,180,2012-11-11 12:15:00
6:35 AM,53.6,46.4,77,29.64,10.0,South,8.1,-,N/A,,Clear,190,2012-11-11 12:35:00
6:55 AM,53.6,46.4,77,29.66,10.0,South,10.4,17.3,N/A,,Scattered Clouds,190,2012-11-11 12:55:00
7:15 AM,55.4,46.4,72,29.66,10.0,South,12.7,19.6,N/A,,Mostly Cloudy,180,2012-11-11 13:15:00
7:35 AM,55.4,46.4,72,29.65,10.0,SSW,11.5,20.7,N/A,,Mostly Cloudy,200,2012-11-11 13:35:00
7:55 AM,55.4,48.2,77,29.64,10.0,South,10.4,17.3,N/A,,Scattered Clouds,180,2012-11-11 13:55:00
8:15 AM,55.4,48.2,77,29.62,10.0,South,10.4,20.7,N/A,,Scattered Clouds,180,2012-11-11 14:15:00
8:35 AM,55.4,50.0,82,29.62,10.0,South,10.4,17.3,N/A,,Scattered Clouds,180,2012-11-11 14:35:00
8:55 AM,55.4,50.0,82,29.62,10.0,South,9.2,17.3,N/A,,Clear,170,2012-11-11 14:55:00
9:15 AM,55.4,50.0,82,29.62,10.0,SSW,10.4,16.1,N/A,,Clear,200,2012-11-11 15:15:00
9:35 AM,55.4,50.0,82,29.65,10.0,South,10.4,16.1,N/A,Rain,Rain,190,2012-11-11 15:35:00
9:55 AM,53.6,51.8,94,29.65,10.0,South,10.4,20.7,N/A,Rain,Light Rain,190,2012-11-11 15:55:00
10:15 AM,53.6,51.8,94,29.65,10.0,South,11.5,17.3,N/A,,Light Drizzle,190,2012-11-11 16:15:00
10:35 AM,55.4,51.8,88,29.65,10.0,South,10.4,20.7,N/A,,Overcast,190,2012-11-11 16:35:00
10:55 AM,53.6,51.8,94,29.64,5.0,South,8.1,-,0.01,Rain,Rain,190,2012-11-11 16:55:00
11:15 AM,53.6,51.8,94,29.63,5.0,South,11.5,-,0.02,Rain,Rain,180,2012-11-11 17:15:00
11:35 AM,53.6,51.8,94,29.62,5.0,South,6.9,-,0.04,Rain,Rain,180,2012-11-11 17:35:00
11:55 AM,53.6,51.8,94,29.62,4.0,South,8.1,-,0.07,Rain,Rain,190,2012-11-11 17:55:00
12:15 PM,53.6,51.8,94,29.60,5.0,South,8.1,-,0.03,Rain,Light Rain,190,2012-11-11 18:15:00
12:35 PM,53.6,51.8,94,29.61,5.0,South,6.9,-,0.06,Rain,Rain,190,2012-11-11 18:35:00
12:55 PM,53.6,51.8,94,29.60,5.0,South,8.1,-,0.08,Rain,Rain,190,2012-11-11 18:55:00
1:15 PM,53.6,51.8,94,29.59,4.0,South,6.9,-,0.02,Rain,Rain,190,2012-11-11 19:15:00
1:35 PM,53.6,51.8,94,29.60,5.0,WSW,6.9,-,0.05,Rain,Rain,240,2012-11-11 19:35:00
1:55 PM,50.0,48.2,94,29.60,7.0,West,5.8,-,0.10,Rain,Rain,270,2012-11-11 19:55:00
2:15 PM,50.0,46.4,87,29.60,7.0,Calm,Calm,-,0.04,Rain,Rain,0,2012-11-11 20:15:00
2:35 PM,50.0,46.4,87,29.59,10.0,WSW,3.5,-,0.08,Rain,Rain,240,2012-11-11 20:35:00
2:55 PM,48.2,46.4,93,29.61,10.0,WSW,5.8,-,0.12,Rain,Light Rain,240,2012-11-11 20:55:00
3:15 PM,46.4,46.4,100,29.62,10.0,West,4.6,-,0.03,Rain,Light Rain,280,2012-11-11 21:15:00
3:35 PM,46.4,44.6,93,29.62,7.0,Calm,Calm,-,0.06,Rain,Rain,0,2012-11-11 21:35:00
3:55 PM,44.6,42.8,93,29.61,7.0,Calm,Calm,-,0.10,Rain,Rain,0,2012-11-11 21:55:00
4:15 PM,44.6,42.8,93,29.60,10.0,Calm,Calm,-,0.03,Rain,Rain,0,2012-11-11 22:15:00
4:35 PM,44.6,44.6,100,29.61,10.0,Calm,Calm,-,0.07,Rain,Rain,0,2012-11-11 22:35:00
4:55 PM,44.6,42.8,93,29.61,10.0,West,3.5,-,0.10,Rain,Light Rain,270,2012-11-11 22:55:00
5:15 PM,44.6,42.8,93,29.62,10.0,West,5.8,-,0.02,Rain,Light Rain,260,2012-11-11 23:15:00
5:35 PM,42.8,41.0,93,29.60,7.0,West,5.8,-,0.05,Rain,Rain,270,2012-11-11 23:35:00
5:55 PM,42.8,41.0,93,29.60,10.0,West,3.5,-,0.08,Rain,Rain,270,2012-11-11 23:55:00
6:15 PM,42.8,41.0,93,29.61,10.0,West,5.8,-,0.01,,Light Drizzle,260,2012-11-12 00:15:00
6:35 PM,41.0,41.0,100,29.63,10.0,West,6.9,-,0.04,Rain,Light Rain,270,2012-11-12 00:35:00
6:55 PM,41.0,37.4,87,29.64,10.0,West,6.9,-,0.05,Rain,Light Rain,260,2012-11-12 00:55:00
7:15 PM,39.2,37.4,93,29.62,10.0,West,4.6,-,0.01,,Overcast,260,2012-11-12 01:15:00
7:35 PM,37.4,35.6,93,29.65,10.0,WSW,13.8,18.4,0.01,,Light Drizzle,250,2012-11-12 01:35:00
7:55 PM,35.6,35.6,100,29.65,2.5,West,11.5,17.3,0.01,,Light Drizzle,260,2012-11-12 01:55:00
8:15 PM,35.6,33.8,93,29.68,7.0,WSW,8.1,-,N/A,,Overcast,250,2012-11-12 02:15:00
8:35 PM,35.6,33.8,93,29.66,3.0,WSW,5.8,-,N/A,Rain,Light Rain,250,2012-11-12 02:35:00
8:55 PM,33.8,33.8,100,29.67,4.0,West,6.9,16.1,N/A,,Overcast,270,2012-11-12 02:55:00
9:15 PM,33.8,32.0,93,29.69,4.0,West,9.2,-,N/A,Snow,Light Snow,270,2012-11-12 03:15:00
9:35 PM,32.0,32.0,100,29.70,7.0,West,8.1,-,N/A,,Overcast,270,2012-11-12 03:35:00
9:55 PM,32.0,32.0,100,29.70,4.0,West,8.1,-,N/A,Snow,Light Snow,270,2012-11-12 03:55:00
10:15 PM,32.0,32.0,100,29.71,10.0,West,9.2,-,N/A,,Overcast,270,2012-11-12 04:15:00
10:35 PM,32.0,30.2,93,29.72,10.0,West,8.1,16.1,N/A,,Overcast,280,2012-11-12 04:35:00
11:15 PM,32.0,30.2,93,29.73,2.5,West,9.2,18.4,N/A,Snow,Light Snow,270,2012-11-12 05:15:00
11:35 PM,32.0,30.2,93,29.71,10.0,West,10.4,17.3,N/A,,Overcast,280,2012-11-12 05:35:00
11:55 PM,30.2,28.4,93,29.73,10.0,West,6.9,16.1,N/A,,Overcast,260,2012-11-12 05:55:00